Tillbaka till svenska Fidonet
English   Information   Debug  
FILM   0/18
FNEWS_PUBLISH   4983
FN_SYSOP   42232
FN_SYSOP_OLD1   71952
FTP_FIDO   0/2
FTSC_PUBLIC   0/13976
FUNNY   0/4886
GENEALOGY.EUR   0/71
GET_INFO   105
GOLDED   0/408
HAM   3181/16715
HOLYSMOKE   0/6791
HOT_SITES   0/1
HTMLEDIT   0/71
HUB203   466
HUB_100   264
HUB_400   39
HUMOR   0/29
IC   0/2851
INTERNET   0/424
INTERUSER   0/3
IP_CONNECT   719
JAMNNTPD   0/233
JAMTLAND   0/47
KATTY_KORNER   0/41
LAN   0/16
LINUX-USER   0/19
LINUXHELP   0/1155
LINUX   0/22386
LINUX_BBS   0/957
mail   18.68
mail_fore_ok   249
MENSA   251/341
MODERATOR   0/102
MONTE   0/992
MOSCOW_OKLAHOMA   0/1245
MUFFIN   0/783
MUSIC   0/321
N203_STAT   938
N203_SYSCHAT   313
NET203   321
NET204   69
NET_DEV   0/10
NORD.ADMIN   0/101
NORD.CHAT   0/2572
NORD.FIDONET   189
NORD.HARDWARE   0/28
NORD.KULTUR   0/114
NORD.PROG   0/32
NORD.SOFTWARE   0/88
NORD.TEKNIK   0/58
NORD   0/453
OCCULT_CHAT   0/93
OS2BBS   0/787
OS2DOSBBS   0/580
OS2HW   0/42
OS2INET   0/37
OS2LAN   0/134
OS2PROG   0/36
OS2REXX   0/113
OS2USER-L   207
OS2   0/4831
OSDEBATE   0/18996
PASCAL   0/490
PERL   0/457
PHP   0/45
POINTS   0/405
POLITICS   0/29554
POL_INC   1064/14731
PSION   103
R20_ADMIN   1133
R20_AMATORRADIO   0/2
R20_BEST_OF_FIDONET   16
R20_CHAT   0/897
R20_DEPP   0/3
R20_DEV   400
R20_ECHO2   1889
R20_ECHOPRES   0/35
R20_ESTAT   0/719
R20_FIDONETPROG...
...RAM.MYPOINT
  0/2
R20_FIDONETPROGRAM   0/22
R20_FIDONET   0/248
R20_FILEFIND   0/24
R20_FILEFOUND   0/22
R20_HIFI   0/3
R20_INFO2   3782
R20_INTERNET   0/12940
R20_INTRESSE   0/60
R20_INTR_KOM   0/99
R20_KANDIDAT.CHAT   42
R20_KANDIDAT   28
R20_KOM_DEV   112
R20_KONTROLL   0/13360
R20_KORSET   0/18
R20_LOKALTRAFIK   0/24
R20_MODERATOR   0/1852
R20_NC   76
R20_NET200   245
R20_NETWORK.OTH...
...ERNETS
  0/13
R20_OPERATIVSYS...
...TEM.LINUX
  0/44
R20_PROGRAMVAROR   0/1
R20_REC2NEC   534
R20_SFOSM   0/341
R20_SF   0/108
R20_SPRAK.ENGLISH   0/1
R20_SQUISH   107
R20_TEST   2
R20_WORST_OF_FIDONET   20
RAR   0/9
RA_MULTI   106
RA_UTIL   0/162
REGCON.EUR   0/2069
REGCON   0/13
SCIENCE   0/1206
SF   0/239
SHAREWARE_SUPPORT   0/5146
SHAREWRE   0/14
SIMPSONS   0/169
STATS_OLD1   1593/2539.065
STATS_OLD2   0/2530
STATS_OLD3   0/2395.095
STATS_OLD4   0/1692.25
SURVIVOR   0/495
SYSOPS_CORNER   0/3
SYSOP   0/84
TAGLINES   0/112
TEAMOS2   0/4530
TECH   0/2617
TEST.444   0/105
TRAPDOOR   0/19
TREK   0/755
TUB   0/290
UFO   0/40
UNIX   0/1316
USA_EURLINK   0/102
USR_MODEMS   0/1
VATICAN   0/2740
VIETNAM_VETS   0/14
VIRUS   0/378
VIRUS_INFO   0/201
VISUAL_BASIC   0/473
WHITEHOUSE   0/5187
WIN2000   0/101
WIN32   0/30
WIN95   68497/4291
WIN95_OLD1   0/70272
WINDOWS   0/1517
WWB_SYSOP   0/419
WWB_TECH   0/810
ZCC-PUBLIC   0/1
ZEC   4

 
4DOS   0/134
ABORTION   0/7
ALASKA_CHAT   0/506
ALLFIX_FILE   0/1313
ALLFIX_FILE_OLD1   0/7997
ALT_DOS   0/152
AMATEUR_RADIO   0/1039
AMIGASALE   0/14
AMIGA   0/331
AMIGA_INT   0/1
AMIGA_PROG   0/20
AMIGA_SYSOP   0/26
ANIME   0/15
ARGUS   0/924
ASCII_ART   0/340
ASIAN_LINK   0/651
ASTRONOMY   0/417
AUDIO   0/92
AUTOMOBILE_RACING   0/105
BABYLON5   0/17862
BAG   135
BATPOWER   0/361
BBBS.ENGLISH   0/382
BBSLAW   0/109
BBS_ADS   0/5290
BBS_INTERNET   0/507
BIBLE   0/3563
BINKD   0/1119
BINKLEY   0/215
BLUEWAVE   0/2173
CABLE_MODEMS   0/25
CBM   0/46
CDRECORD   0/66
CDROM   0/20
CLASSIC_COMPUTER   0/378
COMICS   0/15
CONSPRCY   0/899
COOKING   42009
COOKING_OLD1   0/24719
COOKING_OLD2   25021/40862
COOKING_OLD3   0/37489
COOKING_OLD4   28923/35496
COOKING_OLD5   9370
C_ECHO   0/189
C_PLUSPLUS   0/31
DIRTY_DOZEN   0/201
DOORGAMES   0/2333
DOS_INTERNET   0/196
duplikat   6102
ECHOLIST   0/18295
EC_SUPPORT   0/318
ELECTRONICS   0/359
ELEKTRONIK.GER   1534
ENET.LINGUISTIC   0/13
ENET.POLITICS   0/4
ENET.SOFT   0/11701
ENET.SYSOP   34335
ENET.TALKS   0/32
ENGLISH_TUTOR   0/2000
EVOLUTION   0/1335
FDECHO   0/217
FDN_ANNOUNCE   4172/7068
FIDONEWS   25122
FIDONEWS_OLD1   0/49742
FIDONEWS_OLD2   0/35949
FIDONEWS_OLD3   0/30874
FIDONEWS_OLD4   0/37224
FIDO_SYSOP   12973
FIDO_UTIL   0/180
FILEFIND   0/209
FILEGATE   0/212
Möte HAM, 16715 texter
 lista första sista föregående nästa
Text 3407, 885 rader
Skriven 2009-12-24 21:00:19 av Amsat List (1:323/120.0)
Ärende: [keps]  orb09358.amsa
=============================
[keps]  orb09358.amsa

Return-Path: <keps-bounces@amsat.org>
X-Rcpt: craig.healy@chowda.com
X-UIDL: 1261705509.35157

SB KEPS @ AMSAT  $ORB09358.O
Orbital Elements  09358.OSCAR

HR AMSAT ORBITAL ELEMENTS FOR OSCAR SATELLITES
FROM WA5QGD FORT WORTH,TX December 24, 2009
Send Subscribe/unsubscribe to KEPS at 
http://www.amsat.org/mailman/listinfo/keps
BID: ORB09358.O
TO ALL RADIO AMATEURS BT

Satellite: AO-07
Catalog number: 07530
Epoch time:      09357.62882473
Element set:     661
Inclination:      101.4125 deg
RA of node:       015.2439 deg
Eccentricity:    0.0011848
Arg of perigee:   258.7270 deg
Mean anomaly:     101.2470 deg
Mean motion:   12.53577335 rev/day
Decay rate:       -2.7e-07 rev/day^2
Epoch rev:           60645
Checksum:              288

Satellite: FO-29
Catalog number: 24278
Epoch time:      09357.61572829
Element set:     207
Inclination:      098.5228 deg
RA of node:       205.9167 deg
Eccentricity:    0.0350085
Arg of perigee:   219.1927 deg
Mean anomaly:     138.3381 deg
Mean motion:   13.52947225 rev/day
Decay rate:        9.1e-07 rev/day^2
Epoch rev:           65936
Checksum:              340

Satellite: SO-33
Catalog number: 25509
Epoch time:      09357.54388330
Element set:     614
Inclination:      031.4333 deg
RA of node:       061.7542 deg
Eccentricity:    0.0354048
Arg of perigee:   194.1937 deg
Mean anomaly:     164.8489 deg
Mean motion:   14.28276901 rev/day
Decay rate:       3.04e-06 rev/day^2
Epoch rev:           58292
Checksum:              319

Satellite: RS-22
Catalog number: 27939
Epoch time:      09358.69863251
Element set:     970
Inclination:      097.9150 deg
RA of node:       226.3162 deg
Eccentricity:    0.0012617
Arg of perigee:   250.2712 deg
Mean anomaly:     109.7131 deg
Mean motion:   14.63368281 rev/day
Decay rate:        8.1e-07 rev/day^2
Epoch rev:           33343
Checksum:              304

Satellite: VO-52
Catalog number: 28650
Epoch time:      09357.82259757
Element set:     393
Inclination:      097.7183 deg
RA of node:       052.8738 deg
Eccentricity:    0.0027932
Arg of perigee:   128.5689 deg
Mean anomaly:     231.7992 deg
Mean motion:   14.81659857 rev/day
Decay rate:       1.81e-06 rev/day^2
Epoch rev:           25072
Checksum:              365

Satellite: SO-67
Catalog number: 35870
Epoch time:      09358.18996233
Element set:     286
Inclination:      097.3584 deg
RA of node:       046.3669 deg
Eccentricity:    0.0010754
Arg of perigee:   318.7240 deg
Mean anomaly:     125.6434 deg
Mean motion:   15.22895989 rev/day
Decay rate:       5.94e-06 rev/day^2
Epoch rev:            1483
Checksum:              357

Satellite: HO-68
Catalog number: 36122
Epoch time:      09358.20137579
Element set:      29
Inclination:      100.4976 deg
RA of node:       055.2221 deg
Eccentricity:    0.0007423
Arg of perigee:   019.1656 deg
Mean anomaly:     340.9742 deg
Mean motion:   13.16280162 rev/day
Decay rate:       -4.5e-07 rev/day^2
Epoch rev:             119
Checksum:              264

/EX
SB KEPS @ AMSAT  $ORB09358.D
Orbital Elements  09358.MICROS

HR AMSAT ORBITAL ELEMENTS FOR THE MICROSATS
FROM WA5QGD FORT WORTH,TX December 24, 2009
Send Subscribe/unsubscribe to KEPS at 
http://www.amsat.org/mailman/listinfo/keps
BID: ORB09358.D
TO ALL RADIO AMATEURS BT

Satellite: UO-11
Catalog number: 14781
Epoch time:      09358.22842779
Element set:     134
Inclination:      098.0814 deg
RA of node:       044.2026 deg
Eccentricity:    0.0010114
Arg of perigee:   083.0769 deg
Mean anomaly:     277.1641 deg
Mean motion:   14.79755347 rev/day
Decay rate:        2.2e-07 rev/day^2
Epoch rev:           38593
Checksum:              308

Satellite: AO-16
Catalog number: 20439
Epoch time:      09357.86047079
Element set:     780
Inclination:      098.3076 deg
RA of node:       317.9062 deg
Eccentricity:    0.0010681
Arg of perigee:   332.2006 deg
Mean anomaly:     027.8615 deg
Mean motion:   14.31842900 rev/day
Decay rate:      .00000000 rev/day^2
Epoch rev:            4029
Checksum:              277

Satellite: LO-19
Catalog number: 20442
Epoch time:      09357.81664318
Element set:    0689
Inclination:      098.2689 deg
RA of node:       324.3785 deg
Eccentricity:    0.0011412
Arg of perigee:   326.9810 deg
Mean anomaly:     033.0644 deg
Mean motion:   14.32076598 rev/day
Decay rate:     -.00000000 rev/day^2
Epoch rev:           04045
Checksum:              300

Satellite: AO-27
Catalog number: 22825
Epoch time:      09357.58102745
Element set:     415
Inclination:      098.4662 deg
RA of node:       305.2850 deg
Eccentricity:    0.0009285
Arg of perigee:   068.9660 deg
Mean anomaly:     291.2507 deg
Mean motion:   14.29281721 rev/day
Decay rate:        2.3e-07 rev/day^2
Epoch rev:           84696
Checksum:              323

Satellite: IO-26
Catalog number: 22826
Epoch time:      09357.81775154
Element set:     149
Inclination:      098.4579 deg
RA of node:       306.1851 deg
Eccentricity:    0.0009835
Arg of perigee:   063.0891 deg
Mean anomaly:     297.1324 deg
Mean motion:   14.29535528 rev/day
Decay rate:        1.6e-07 rev/day^2
Epoch rev:           84710
Checksum:              332

Satellite: GO-32
Catalog number: 25397
Epoch time:      09357.54768378
Element set:    0071
Inclination:      098.3164 deg
RA of node:       009.6461 deg
Eccentricity:    0.0002088
Arg of perigee:   067.3033 deg
Mean anomaly:     292.8359 deg
Mean motion:   14.23168178 rev/day
Decay rate:      -1.09e-06 rev/day^2
Epoch rev:           59506
Checksum:              333

